Year,Month,Day,Hour,Minute,Value (Times are PST for windspeed in km/hr)
2018,12,20,00,00,2.90
2018,12,20,00,01,7.20
2018,12,20,00,02,8.40
2018,12,20,00,03,7.10
2018,12,20,00,04,9.50
2018,12,20,00,05,7.80
2018,12,20,00,06,11.30
2018,12,20,00,07,7.70
2018,12,20,00,08,9.20
2018,12,20,00,09,9.60
2018,12,20,00,10,15.90
2018,12,20,00,11,8.90
2018,12,20,00,12,10.90
2018,12,20,00,13,13.20
2018,12,20,00,14,8.60
2018,12,20,00,15,7.50
2018,12,20,00,16,10.30
2018,12,20,00,17,3.20
2018,12,20,00,18,14.80
2018,12,20,00,19,7.70
2018,12,20,00,20,13.20
2018,12,20,00,21,10.40
2018,12,20,00,22,9.10
2018,12,20,00,23,13.40
2018,12,20,00,24,14.20
2018,12,20,00,25,6.40
2018,12,20,00,26,10.10
2018,12,20,00,27,12.20
2018,12,20,00,28,11.40
2018,12,20,00,29,9.70
2018,12,20,00,30,8.60
2018,12,20,00,31,8.30
2018,12,20,00,32,10.30
2018,12,20,00,33,14.50
2018,12,20,00,34,4.80
2018,12,20,00,35,11.10
2018,12,20,00,36,13.10
2018,12,20,00,37,8.10
2018,12,20,00,38,12.80
2018,12,20,00,39,10.20
2018,12,20,00,40,13.80
2018,12,20,00,41,9.00
2018,12,20,00,42,6.30
2018,12,20,00,43,10.50
2018,12,20,00,44,13.20
2018,12,20,00,45,10.70
2018,12,20,00,46,12.20
2018,12,20,00,47,6.90
2018,12,20,00,48,6.60
2018,12,20,00,49,8.40
2018,12,20,00,50,14.40
2018,12,20,00,51,7.70
2018,12,20,00,52,6.30
2018,12,20,00,53,10.10
2018,12,20,00,54,7.60
2018,12,20,00,55,16.30
2018,12,20,00,56,13.50
2018,12,20,00,57,9.50
2018,12,20,00,58,7.20
2018,12,20,00,59,12.50
2018,12,20,01,00,15.80
2018,12,20,01,01,10.40
2018,12,20,01,02,13.60
2018,12,20,01,03,12.80
2018,12,20,01,04,12.40
2018,12,20,01,05,12.40
2018,12,20,01,06,13.60
2018,12,20,01,07,11.60
2018,12,20,01,08,7.20
2018,12,20,01,09,5.20
2018,12,20,01,10,6.90
2018,12,20,01,11,10.90
2018,12,20,01,12,6.70
2018,12,20,01,13,4.80
2018,12,20,01,14,9.40
2018,12,20,01,15,2.70
2018,12,20,01,16,1.30
2018,12,20,01,17,8.70
2018,12,20,01,18,5.10
2018,12,20,01,19,4.10
2018,12,20,01,20,4.60
2018,12,20,01,21,9.50
2018,12,20,01,22,3.20
2018,12,20,01,23,3.50
2018,12,20,01,24,11.10
2018,12,20,01,25,7.60
2018,12,20,01,26,10.20
2018,12,20,01,27,10.00
2018,12,20,01,28,11.60
2018,12,20,01,29,10.00
2018,12,20,01,30,14.10
2018,12,20,01,31,16.20
2018,12,20,01,32,9.50
2018,12,20,01,33,6.20
2018,12,20,01,34,9.70
2018,12,20,01,35,14.40
2018,12,20,01,36,11.10
2018,12,20,01,37,11.10
2018,12,20,01,38,11.40
2018,12,20,01,39,6.40
2018,12,20,01,40,10.60
2018,12,20,01,41,15.60
2018,12,20,01,42,15.10
2018,12,20,01,43,14.20
2018,12,20,01,44,15.40
2018,12,20,01,45,19.00
2018,12,20,01,46,16.40
2018,12,20,01,47,15.50
2018,12,20,01,48,16.40
2018,12,20,01,49,19.00
2018,12,20,01,50,15.60
2018,12,20,01,51,16.20
2018,12,20,01,52,8.50
2018,12,20,01,53,7.90
2018,12,20,01,54,8.50
2018,12,20,01,55,14.10
2018,12,20,01,56,14.20
2018,12,20,01,57,14.50
2018,12,20,01,58,14.50
2018,12,20,01,59,14.50
2018,12,20,02,00,14.50
2018,12,20,02,01,14.50
2018,12,20,02,02,14.50
2018,12,20,02,03,14.50
2018,12,20,02,04,14.50
2018,12,20,02,05,14.50
2018,12,20,02,06,14.50
2018,12,20,08,54,16.60
2018,12,20,08,55,19.60
2018,12,20,08,56,18.30
2018,12,20,08,57,10.50
2018,12,20,08,58,10.90
2018,12,20,08,59,18.60
2018,12,20,09,00,22.00
2018,12,20,09,01,20.30
2018,12,20,09,02,16.70
2018,12,20,09,03,12.00
2018,12,20,09,04,11.40
2018,12,20,09,05,11.70
2018,12,20,09,06,10.70
2018,12,20,09,07,12.90
2018,12,20,09,08,14.10
2018,12,20,09,09,16.30
2018,12,20,09,10,15.70
2018,12,20,09,11,19.80
2018,12,20,09,12,14.10
2018,12,20,09,13,17.40
2018,12,20,09,14,20.70
2018,12,20,09,15,19.40
2018,12,20,09,16,13.70
2018,12,20,09,17,13.50
2018,12,20,09,18,11.10
2018,12,20,09,19,15.90
2018,12,20,09,20,12.40
2018,12,20,09,21,14.30
2018,12,20,09,22,11.90
2018,12,20,09,23,18.20
2018,12,20,09,24,11.60
2018,12,20,09,25,11.00
2018,12,20,09,26,11.50
2018,12,20,09,27,15.60
2018,12,20,09,28,12.40
2018,12,20,09,29,11.70
2018,12,20,09,30,9.00
2018,12,20,09,31,14.10
2018,12,20,09,32,8.10
2018,12,20,09,33,11.80
2018,12,20,09,34,14.70
2018,12,20,09,35,15.40
2018,12,20,09,36,13.60
2018,12,20,09,37,13.10
2018,12,20,09,38,9.60
2018,12,20,09,39,12.10
2018,12,20,09,40,18.40
2018,12,20,09,41,19.30
2018,12,20,09,42,16.50
2018,12,20,09,43,18.70
2018,12,20,09,44,17.30
2018,12,20,09,45,15.30
2018,12,20,09,46,9.40
2018,12,20,09,47,13.10
2018,12,20,09,48,12.50
2018,12,20,09,49,19.10
2018,12,20,09,50,21.90
2018,12,20,09,51,19.70
2018,12,20,09,52,18.20
2018,12,20,09,53,13.10
2018,12,20,09,54,19.10
2018,12,20,09,55,15.70
2018,12,20,09,56,14.80
2018,12,20,09,57,16.20
2018,12,20,09,58,13.90
2018,12,20,09,59,13.10
2018,12,20,10,00,12.00
2018,12,20,10,01,16.80
2018,12,20,10,02,18.00
2018,12,20,10,03,14.70
2018,12,20,10,04,10.90
2018,12,20,10,05,15.00
2018,12,20,10,06,17.40
2018,12,20,10,07,17.20
2018,12,20,10,08,18.10
2018,12,20,10,09,18.50
2018,12,20,10,10,14.80
2018,12,20,10,11,10.00
2018,12,20,10,12,17.00
2018,12,20,10,13,10.40
2018,12,20,10,14,15.00
2018,12,20,10,15,16.40
2018,12,20,10,16,16.90
2018,12,20,10,17,15.10
2018,12,20,10,18,12.20
2018,12,20,10,19,9.80
2018,12,20,10,20,16.20
2018,12,20,10,21,20.10
2018,12,20,10,22,16.00
2018,12,20,10,23,14.80
2018,12,20,10,24,16.20
2018,12,20,10,25,16.20
2018,12,20,10,26,9.40
2018,12,20,10,27,17.20
2018,12,20,10,28,16.70
2018,12,20,10,29,13.30
2018,12,20,10,30,10.30
2018,12,20,10,31,12.60
2018,12,20,10,32,12.60
2018,12,20,10,33,11.60
2018,12,20,10,34,12.90
2018,12,20,10,35,16.70
2018,12,20,10,36,12.30
2018,12,20,10,37,11.60
2018,12,20,10,38,11.90
2018,12,20,10,39,8.50
2018,12,20,10,40,4.40
2018,12,20,10,41,6.20
2018,12,20,10,42,11.00
2018,12,20,10,43,10.60
2018,12,20,10,44,8.60
2018,12,20,10,45,11.30
2018,12,20,10,46,11.50
2018,12,20,10,47,4.80
2018,12,20,10,48,7.00
2018,12,20,10,49,8.00
2018,12,20,10,50,6.70
2018,12,20,10,51,6.30
2018,12,20,10,52,2.70
2018,12,20,10,53,6.00
2018,12,20,10,54,5.20
2018,12,20,10,55,3.30
2018,12,20,10,56,5.00
2018,12,20,10,57,6.10
2018,12,20,10,58,9.50
2018,12,20,10,59,8.20
2018,12,20,11,00,8.60
2018,12,20,11,01,11.70
2018,12,20,11,02,8.00
2018,12,20,11,03,8.80
2018,12,20,11,04,7.10
2018,12,20,11,05,9.10
2018,12,20,11,06,7.40
2018,12,20,11,07,12.50
2018,12,20,11,08,17.80
2018,12,20,11,09,16.70
2018,12,20,11,10,22.90
2018,12,20,11,11,27.60
2018,12,20,11,12,20.30
2018,12,20,11,13,23.00
2018,12,20,11,14,33.00
2018,12,20,11,15,21.20
2018,12,20,11,16,26.40
2018,12,20,11,17,25.30
2018,12,20,11,18,19.40
2018,12,20,11,19,21.90
2018,12,20,11,20,16.80
2018,12,20,11,21,21.60
2018,12,20,11,22,18.10
2018,12,20,11,23,25.70
2018,12,20,11,24,20.90
2018,12,20,11,25,17.60
2018,12,20,11,26,27.70
2018,12,20,11,27,25.30
2018,12,20,11,28,20.40
2018,12,20,11,29,18.30
2018,12,20,11,30,28.30
2018,12,20,11,31,31.20
2018,12,20,11,32,21.60
2018,12,20,11,33,20.00
2018,12,20,11,34,24.00
2018,12,20,11,35,20.90
2018,12,20,11,36,23.10
2018,12,20,11,37,18.60
2018,12,20,11,38,24.00
2018,12,20,11,39,20.70
2018,12,20,11,40,27.10
2018,12,20,11,41,27.40
2018,12,20,11,42,29.80
2018,12,20,11,43,32.80
2018,12,20,11,44,31.40
2018,12,20,11,45,23.70
2018,12,20,11,46,31.80
2018,12,20,11,47,40.40
2018,12,20,11,48,21.70
2018,12,20,11,49,23.20
2018,12,20,11,50,24.70
2018,12,20,11,51,30.20
2018,12,20,11,52,26.90
2018,12,20,11,53,28.30
2018,12,20,11,54,20.60
2018,12,20,11,55,25.70
2018,12,20,11,56,28.00
2018,12,20,11,57,21.70
2018,12,20,11,58,24.00
2018,12,20,11,59,23.10
2018,12,20,12,00,27.60
2018,12,20,12,01,23.40
2018,12,20,12,02,24.00
2018,12,20,12,03,39.20
2018,12,20,12,04,30.10
2018,12,20,12,05,24.80
2018,12,20,12,06,34.50
2018,12,20,12,07,33.40
2018,12,20,12,08,33.80
2018,12,20,12,09,26.50
2018,12,20,12,10,35.90
2018,12,20,12,11,32.00
2018,12,20,12,12,26.20
2018,12,20,12,13,36.50
2018,12,20,12,14,29.10
2018,12,20,12,15,26.70
2018,12,20,12,16,31.60
2018,12,20,12,17,28.70
2018,12,20,12,18,22.60
2018,12,20,12,19,17.20
2018,12,20,12,20,25.60
2018,12,20,12,21,29.10
2018,12,20,12,22,18.50
2018,12,20,12,23,18.70
2018,12,20,12,24,14.50
2018,12,20,12,25,15.90
2018,12,20,12,26,22.70
2018,12,20,12,27,15.10
2018,12,20,12,28,15.10
2018,12,20,12,29,27.30
2018,12,20,12,30,20.00
2018,12,20,12,31,30.10
2018,12,20,12,32,33.40
2018,12,20,12,33,24.60
2018,12,20,12,34,21.60
2018,12,20,12,35,22.70
2018,12,20,12,36,24.30
2018,12,20,12,37,29.40
2018,12,20,12,38,24.80
2018,12,20,12,39,18.80
2018,12,20,12,40,29.30
2018,12,20,12,41,24.90
2018,12,20,12,42,19.20
2018,12,20,12,43,21.40
2018,12,20,12,44,35.60
2018,12,20,12,45,24.60
2018,12,20,12,46,25.60
2018,12,20,12,47,20.70
2018,12,20,12,48,19.20
2018,12,20,12,49,21.90
2018,12,20,12,50,21.50
2018,12,20,12,51,33.90
2018,12,20,12,52,19.50
2018,12,20,12,53,22.90
2018,12,20,12,54,20.00
2018,12,20,12,55,32.50
2018,12,20,12,56,22.60
2018,12,20,12,57,25.90
2018,12,20,12,58,25.90
2018,12,20,12,59,32.20
2018,12,20,13,00,30.30
2018,12,20,13,01,21.30
2018,12,20,13,02,30.30
2018,12,20,13,03,20.20
2018,12,20,13,04,24.20
2018,12,20,13,05,28.60
2018,12,20,13,06,25.70
2018,12,20,13,07,27.30
2018,12,20,13,08,25.00
2018,12,20,13,09,28.00
2018,12,20,13,10,23.50
2018,12,20,13,11,29.40
2018,12,20,13,12,29.90
2018,12,20,13,13,25.70
2018,12,20,13,14,25.20
2018,12,20,13,15,22.20
2018,12,20,13,16,19.50
2018,12,20,13,17,24.80
2018,12,20,13,18,38.40
2018,12,20,13,19,36.50
2018,12,20,13,20,28.50
2018,12,20,13,21,30.00
2018,12,20,13,22,26.40
2018,12,20,13,23,36.40
2018,12,20,13,24,28.50
2018,12,20,13,25,30.10
2018,12,20,13,26,30.00
2018,12,20,13,27,29.60
2018,12,20,13,28,30.80
2018,12,20,13,29,27.70
2018,12,20,13,30,28.80
2018,12,20,13,31,29.30
2018,12,20,13,32,29.60
2018,12,20,13,33,23.30
2018,12,20,13,34,34.90
2018,12,20,13,35,34.10
2018,12,20,13,36,35.50
2018,12,20,13,37,34.60
2018,12,20,13,38,31.20
2018,12,20,13,39,27.80
2018,12,20,13,40,27.50
2018,12,20,13,41,34.00
2018,12,20,13,42,26.20
2018,12,20,13,43,27.40
2018,12,20,13,44,26.40
2018,12,20,13,45,26.20
2018,12,20,13,46,21.20
2018,12,20,13,47,22.20
2018,12,20,13,48,25.60
2018,12,20,13,49,30.00
2018,12,20,13,50,29.90
2018,12,20,13,51,31.10
2018,12,20,13,52,27.50
2018,12,20,13,53,18.80
2018,12,20,13,54,38.30
2018,12,20,13,55,22.50
2018,12,20,13,56,17.40
2018,12,20,13,57,26.90
2018,12,20,13,58,31.20
2018,12,20,13,59,27.50
2018,12,20,14,00,24.20
2018,12,20,14,01,31.90
2018,12,20,14,02,19.20
2018,12,20,14,03,26.50
2018,12,20,14,04,32.50
2018,12,20,14,05,32.80
2018,12,20,14,06,37.20
2018,12,20,14,07,41.50
2018,12,20,14,08,31.90
2018,12,20,14,09,39.20
2018,12,20,14,10,30.40
2018,12,20,14,11,27.20
2018,12,20,14,12,32.50
2018,12,20,14,13,32.40
2018,12,20,14,14,33.20
2018,12,20,14,15,37.60
2018,12,20,14,16,37.30
2018,12,20,14,17,37.40
2018,12,20,14,18,34.50
2018,12,20,14,19,41.90
2018,12,20,14,20,40.80
2018,12,20,14,21,32.40
2018,12,20,14,22,32.90
2018,12,20,14,23,25.80
2018,12,20,14,24,37.00
2018,12,20,14,25,28.40
2018,12,20,14,26,22.00
2018,12,20,14,27,27.70
2018,12,20,14,28,35.60
2018,12,20,14,29,29.90
2018,12,20,14,30,20.90
2018,12,20,14,31,26.00
2018,12,20,14,32,35.50
2018,12,20,14,33,21.30
2018,12,20,14,34,32.80
2018,12,20,14,35,30.70
2018,12,20,14,36,38.90
2018,12,20,14,37,36.10
2018,12,20,14,38,33.20
2018,12,20,14,39,29.50
2018,12,20,14,40,21.40
2018,12,20,14,41,26.50
2018,12,20,14,42,28.30
2018,12,20,14,43,25.10
2018,12,20,14,44,29.10
2018,12,20,14,45,30.60
2018,12,20,14,46,31.30
2018,12,20,14,47,39.90
2018,12,20,14,48,32.00
2018,12,20,14,49,23.70
2018,12,20,14,50,19.00
2018,12,20,14,51,35.60
2018,12,20,14,52,28.80
2018,12,20,14,53,25.30
2018,12,20,14,54,30.70
2018,12,20,14,55,26.10
2018,12,20,14,56,33.30
2018,12,20,14,57,35.80
2018,12,20,14,58,31.50
2018,12,20,14,59,22.10
2018,12,20,15,00,31.00
2018,12,20,15,01,32.70
2018,12,20,15,02,28.00
2018,12,20,15,03,31.70
2018,12,20,15,04,31.00
2018,12,20,15,05,31.40
2018,12,20,15,06,34.20
2018,12,20,15,07,23.70
2018,12,20,15,08,38.00
2018,12,20,15,09,30.00
2018,12,20,15,10,25.40
2018,12,20,15,11,33.40
2018,12,20,15,12,32.50
2018,12,20,15,13,29.40
2018,12,20,15,14,36.60
2018,12,20,15,15,21.80
2018,12,20,15,16,21.20
2018,12,20,15,17,25.00
2018,12,20,15,18,33.20
2018,12,20,15,19,28.20
2018,12,20,15,20,31.10
2018,12,20,15,21,34.00
2018,12,20,15,22,31.70
2018,12,20,15,23,33.70
2018,12,20,15,24,36.40
2018,12,20,15,25,46.60
2018,12,20,15,26,29.30
2018,12,20,15,27,35.20
2018,12,20,15,28,35.60
2018,12,20,15,29,27.60
2018,12,20,15,30,30.00
2018,12,20,15,31,26.30
2018,12,20,15,32,24.40
2018,12,20,15,33,25.00
2018,12,20,15,34,25.20
2018,12,20,15,35,32.90
2018,12,20,15,36,29.90
2018,12,20,15,37,27.70
2018,12,20,15,38,22.10
2018,12,20,15,39,31.30
2018,12,20,15,40,32.60
2018,12,20,15,41,33.80
2018,12,20,15,42,25.40
2018,12,20,15,43,17.60
2018,12,20,15,44,21.20
2018,12,20,15,45,21.60
2018,12,20,15,46,29.90
2018,12,20,15,47,27.90
2018,12,20,15,48,37.60
2018,12,20,15,49,35.30
2018,12,20,15,50,26.00
2018,12,20,15,51,28.50
2018,12,20,15,52,38.10
2018,12,20,15,53,32.40
2018,12,20,15,54,34.80
2018,12,20,15,55,33.60
2018,12,20,15,56,31.40
2018,12,20,15,57,30.60
2018,12,20,15,58,37.00
2018,12,20,15,59,28.10
2018,12,20,16,00,34.00
2018,12,20,16,01,35.00
2018,12,20,16,02,30.60
2018,12,20,16,03,25.10
2018,12,20,16,04,27.70
2018,12,20,16,05,33.20
2018,12,20,16,06,27.90
2018,12,20,16,07,24.80
2018,12,20,16,08,24.90
2018,12,20,16,09,31.80
2018,12,20,16,10,32.60
2018,12,20,16,11,31.60
2018,12,20,16,12,28.30
2018,12,20,16,13,27.20
2018,12,20,16,14,32.10
2018,12,20,16,15,32.20
2018,12,20,16,16,40.50
2018,12,20,16,17,35.30
2018,12,20,16,18,29.90
2018,12,20,16,19,31.80
2018,12,20,16,20,45.10
2018,12,20,16,21,24.60
2018,12,20,16,22,22.90
2018,12,20,16,23,24.20
2018,12,20,16,24,31.40
2018,12,20,16,25,28.80
2018,12,20,16,26,35.10
2018,12,20,16,27,30.60
2018,12,20,16,28,34.80
2018,12,20,16,29,35.40
2018,12,20,16,30,29.50
2018,12,20,16,31,25.30
2018,12,20,16,32,33.80
2018,12,20,16,33,24.60
2018,12,20,16,34,22.20
2018,12,20,16,35,28.30
2018,12,20,16,36,23.80
2018,12,20,16,37,31.80
2018,12,20,16,38,15.10
2018,12,20,16,39,17.50
2018,12,20,16,40,6.60
2018,12,20,16,41,16.30
2018,12,20,16,42,17.80
2018,12,20,16,43,18.70
2018,12,20,16,44,15.10
2018,12,20,16,45,22.80
2018,12,20,16,46,19.10
2018,12,20,16,47,24.60
2018,12,20,16,48,24.90
2018,12,20,16,49,23.70
2018,12,20,16,50,16.60
2018,12,20,16,51,21.10
2018,12,20,16,52,22.30
2018,12,20,16,53,23.40
2018,12,20,16,54,14.90
2018,12,20,16,55,13.40
2018,12,20,16,56,16.60
2018,12,20,16,57,16.00
2018,12,20,16,58,19.70
2018,12,20,16,59,17.30
2018,12,20,17,00,15.50
2018,12,20,17,01,17.60
2018,12,20,17,02,22.20
2018,12,20,17,03,22.40
2018,12,20,17,04,22.80
2018,12,20,17,05,27.40
2018,12,20,17,06,21.20
2018,12,20,17,07,23.10
2018,12,20,17,08,20.60
2018,12,20,17,09,13.40
2018,12,20,17,10,27.10
2018,12,20,17,11,18.80
2018,12,20,17,12,20.90
2018,12,20,17,13,20.40
2018,12,20,17,14,21.30
2018,12,20,17,15,14.20
2018,12,20,17,16,20.70
2018,12,20,17,17,28.50
2018,12,20,17,18,21.40
2018,12,20,17,19,29.00
2018,12,20,17,20,24.90
2018,12,20,17,21,16.00
2018,12,20,17,22,16.50
2018,12,20,17,23,18.80
2018,12,20,17,24,18.60
2018,12,20,17,25,20.50
2018,12,20,17,26,18.80
2018,12,20,17,27,22.80
2018,12,20,17,28,24.50
2018,12,20,17,29,24.20
2018,12,20,17,30,24.50
2018,12,20,17,31,21.60
2018,12,20,17,32,25.30
2018,12,20,17,33,17.80
2018,12,20,17,34,24.90
2018,12,20,17,35,21.30
2018,12,20,17,36,24.40
2018,12,20,17,37,17.80
2018,12,20,17,38,20.10
2018,12,20,17,39,21.80
2018,12,20,17,40,18.70
2018,12,20,17,41,20.10
2018,12,20,17,42,26.00
2018,12,20,17,43,21.60
2018,12,20,17,44,30.30
2018,12,20,17,45,21.40
2018,12,20,17,46,20.20
2018,12,20,17,47,23.40
2018,12,20,17,48,27.00
2018,12,20,17,49,16.20
2018,12,20,17,50,26.00
2018,12,20,17,51,21.50
2018,12,20,17,52,19.70
2018,12,20,17,53,25.20
2018,12,20,17,54,18.50
2018,12,20,17,55,17.70
2018,12,20,17,56,25.20
2018,12,20,17,57,13.70
2018,12,20,17,58,18.90
2018,12,20,17,59,14.70
2018,12,20,18,00,20.90
2018,12,20,18,01,15.90
2018,12,20,18,02,23.80
2018,12,20,18,03,24.60
2018,12,20,18,04,26.50
2018,12,20,18,05,20.00
2018,12,20,18,06,11.30
2018,12,20,18,07,20.20
2018,12,20,18,08,19.50
2018,12,20,18,09,17.30
2018,12,20,18,10,12.40
2018,12,20,18,11,13.10
2018,12,20,18,12,18.60
2018,12,20,18,13,19.20
2018,12,20,18,14,17.30
2018,12,20,18,15,23.70
2018,12,20,18,16,19.00
2018,12,20,18,17,17.40
2018,12,20,18,18,18.00
2018,12,20,18,19,18.00
2018,12,20,18,20,19.80
2018,12,20,18,21,17.30
2018,12,20,18,22,26.10
2018,12,20,18,23,24.20
2018,12,20,18,24,20.00
2018,12,20,18,25,16.60
2018,12,20,18,26,27.80
2018,12,20,18,27,27.70
2018,12,20,18,28,15.40
2018,12,20,18,29,22.00
2018,12,20,18,30,32.20
2018,12,20,18,31,32.60
2018,12,20,18,32,33.30
2018,12,20,18,33,32.80
2018,12,20,18,34,30.90
2018,12,20,18,35,30.00
2018,12,20,18,36,24.80
2018,12,20,18,37,23.80
2018,12,20,18,38,24.10
2018,12,20,18,39,23.70
2018,12,20,18,40,30.00
2018,12,20,18,41,27.60
2018,12,20,18,42,33.10
2018,12,20,18,43,26.70
2018,12,20,18,44,27.80
2018,12,20,18,45,26.80
2018,12,20,18,46,22.50
2018,12,20,18,47,20.90
2018,12,20,18,48,20.80
2018,12,20,18,49,16.20
2018,12,20,18,50,13.70
2018,12,20,18,51,19.40
2018,12,20,18,52,24.10
2018,12,20,18,53,17.40
2018,12,20,18,54,18.70
2018,12,20,18,55,14.70
2018,12,20,18,56,10.70
2018,12,20,18,57,23.60
2018,12,20,18,58,18.80
2018,12,20,18,59,13.70
2018,12,20,19,00,16.80
2018,12,20,19,01,21.30
2018,12,20,19,02,25.10
2018,12,20,19,03,25.20
2018,12,20,19,04,21.60
2018,12,20,19,05,18.80
2018,12,20,19,06,24.30
2018,12,20,19,07,25.20
2018,12,20,19,08,23.40
2018,12,20,19,09,12.80
2018,12,20,19,10,25.20
2018,12,20,19,11,22.70
2018,12,20,19,12,20.40
2018,12,20,19,13,15.60
2018,12,20,19,14,13.40
2018,12,20,19,15,29.30
2018,12,20,19,16,25.50
2018,12,20,19,17,18.00
2018,12,20,19,18,27.70
2018,12,20,19,19,16.60
2018,12,20,19,20,15.40
2018,12,20,19,21,23.70
2018,12,20,19,22,24.40
2018,12,20,19,23,26.40
2018,12,20,19,24,26.50
2018,12,20,19,25,22.80
2018,12,20,19,26,28.30
2018,12,20,19,27,20.20
2018,12,20,19,28,25.10
2018,12,20,19,29,27.90
2018,12,20,19,30,26.90
2018,12,20,19,31,23.40
2018,12,20,19,32,17.80
2018,12,20,19,33,17.50
2018,12,20,19,34,15.10
2018,12,20,19,35,16.70
2018,12,20,19,36,19.50
2018,12,20,19,37,29.00
2018,12,20,19,38,26.10
2018,12,20,19,39,24.40
2018,12,20,19,40,24.40
2018,12,20,19,41,22.50
2018,12,20,19,42,25.60
2018,12,20,19,43,24.20
2018,12,20,19,44,19.40
2018,12,20,19,45,12.30
2018,12,20,19,46,22.10
2018,12,20,19,47,19.20
2018,12,20,19,48,22.30
2018,12,20,19,49,26.50
2018,12,20,19,50,23.90
2018,12,20,19,51,30.80
2018,12,20,19,52,20.40
2018,12,20,19,53,19.30
2018,12,20,19,54,19.30
2018,12,20,19,55,19.30
2018,12,20,19,56,19.70
2018,12,20,19,57,22.40
2018,12,20,19,58,22.10
2018,12,20,19,59,11.60
2018,12,20,20,00,10.50
2018,12,20,20,01,8.50
2018,12,20,20,02,13.00
2018,12,20,20,03,13.80
2018,12,20,20,04,14.40
2018,12,20,20,05,23.00
2018,12,20,20,06,23.20
2018,12,20,20,07,11.20
2018,12,20,20,08,9.30
2018,12,20,20,09,5.00
2018,12,20,20,10,12.70
2018,12,20,20,11,16.30
2018,12,20,20,12,17.90
2018,12,20,20,13,22.80
2018,12,20,20,14,26.80
2018,12,20,20,15,24.80
2018,12,20,20,16,24.60
2018,12,20,20,17,20.50
2018,12,20,20,18,18.70
2018,12,20,20,19,12.50
2018,12,20,20,20,8.00
2018,12,20,20,21,19.80
2018,12,20,20,22,18.80
2018,12,20,20,23,23.50
2018,12,20,20,24,22.70
2018,12,20,20,25,18.50
2018,12,20,20,26,19.80
2018,12,20,20,27,23.80
2018,12,20,20,28,14.10
2018,12,20,20,29,20.60
2018,12,20,20,30,19.10
2018,12,20,20,31,13.80
2018,12,20,20,32,17.30
2018,12,20,20,33,13.40
2018,12,20,20,34,17.10
2018,12,20,20,35,15.00
2018,12,20,20,36,10.00
2018,12,20,20,37,12.60
2018,12,20,20,38,9.70
2018,12,20,20,39,14.20
2018,12,20,20,40,20.40
2018,12,20,20,41,26.10
2018,12,20,20,42,16.60
2018,12,20,20,43,13.20
2018,12,20,20,44,7.30
2018,12,20,20,45,11.90
2018,12,20,20,46,11.00
2018,12,20,20,47,13.50
2018,12,20,20,48,10.60
2018,12,20,20,49,13.20
2018,12,20,20,50,2.30
2018,12,20,20,51,8.00
2018,12,20,20,52,16.40
2018,12,20,20,53,17.60
2018,12,20,20,54,17.00
2018,12,20,20,55,10.10
2018,12,20,20,56,21.20
2018,12,20,20,57,16.10
2018,12,20,20,58,14.10
2018,12,20,20,59,15.00
2018,12,20,21,00,11.60
2018,12,20,21,01,13.70
2018,12,20,21,02,19.30
2018,12,20,21,03,16.80
2018,12,20,21,04,17.50
2018,12,20,21,05,12.70
2018,12,20,21,06,14.10
2018,12,20,21,07,15.70
2018,12,20,21,08,15.20
2018,12,20,21,09,15.70
2018,12,20,21,10,17.60
2018,12,20,21,11,21.90
2018,12,20,21,12,20.00
2018,12,20,21,13,19.30
2018,12,20,21,14,24.70
2018,12,20,21,15,16.50
2018,12,20,21,16,11.90
2018,12,20,21,17,20.10
2018,12,20,21,18,20.30
2018,12,20,21,19,18.10
2018,12,20,21,20,16.90
2018,12,20,21,21,13.40
2018,12,20,21,22,13.20
2018,12,20,21,23,11.80
2018,12,20,21,24,12.50
2018,12,20,21,25,16.20
2018,12,20,21,26,16.10
2018,12,20,21,27,16.40
2018,12,20,21,28,13.30
2018,12,20,21,29,15.10
2018,12,20,21,30,10.70
2018,12,20,21,31,15.70
2018,12,20,21,32,18.60
2018,12,20,21,33,16.60
2018,12,20,21,34,12.30
2018,12,20,21,35,8.90
2018,12,20,21,36,15.30
2018,12,20,21,37,15.70
2018,12,20,21,38,10.20
2018,12,20,21,39,13.60
2018,12,20,21,40,11.30
2018,12,20,21,41,11.00
2018,12,20,21,42,16.90
2018,12,20,21,43,25.90
2018,12,20,21,44,18.70
2018,12,20,21,45,15.40
2018,12,20,21,46,14.00
2018,12,20,21,47,13.20
2018,12,20,21,48,10.00
2018,12,20,21,49,14.10
2018,12,20,21,50,17.30
2018,12,20,21,51,24.60
2018,12,20,21,52,14.90
2018,12,20,21,53,23.40
2018,12,20,21,54,23.40
2018,12,20,21,55,24.00
2018,12,20,21,56,28.00
2018,12,20,21,57,20.70
2018,12,20,21,58,15.70
2018,12,20,21,59,15.90
2018,12,20,22,00,11.90
2018,12,20,22,01,16.80
2018,12,20,22,02,23.80
2018,12,20,22,03,27.00
2018,12,20,22,04,18.90
2018,12,20,22,05,17.60
2018,12,20,22,06,15.60
2018,12,20,22,07,17.70
2018,12,20,22,08,13.50
2018,12,20,22,09,12.80
2018,12,20,22,10,18.00
2018,12,20,22,11,17.90
2018,12,20,22,12,19.30
2018,12,20,22,13,18.60
2018,12,20,22,14,18.50
2018,12,20,22,15,19.70
2018,12,20,22,16,18.90
2018,12,20,22,17,17.40
2018,12,20,22,18,18.00
2018,12,20,22,19,17.30
2018,12,20,22,20,15.70
2018,12,20,22,21,20.70
2018,12,20,22,22,24.30
2018,12,20,22,23,17.40
2018,12,20,22,24,18.20
2018,12,20,22,25,26.30
2018,12,20,22,26,31.10
2018,12,20,22,27,17.90
2018,12,20,22,28,19.20
2018,12,20,22,29,22.00
2018,12,20,22,30,19.60
2018,12,20,22,31,19.10
2018,12,20,22,32,19.80
2018,12,20,22,33,27.70
2018,12,20,22,34,18.00
2018,12,20,22,35,20.40
2018,12,20,22,36,26.50
2018,12,20,22,37,23.40
2018,12,20,22,38,26.70
2018,12,20,22,39,20.90
2018,12,20,22,40,19.20
2018,12,20,22,41,23.20
2018,12,20,22,42,21.90
2018,12,20,22,43,18.10
2018,12,20,22,44,18.70
2018,12,20,22,45,13.80
2018,12,20,22,46,16.50
2018,12,20,22,47,12.40
2018,12,20,22,48,19.40
2018,12,20,22,49,17.60
2018,12,20,22,50,16.90
2018,12,20,22,51,21.80
2018,12,20,22,52,15.00
2018,12,20,22,53,10.70
2018,12,20,22,54,12.90
2018,12,20,22,55,10.50
2018,12,20,22,56,8.50
2018,12,20,22,57,12.40
2018,12,20,22,58,12.80
2018,12,20,22,59,9.20
2018,12,20,23,00,13.80
2018,12,20,23,01,19.10
2018,12,20,23,02,13.60
2018,12,20,23,03,12.40
2018,12,20,23,04,7.90
2018,12,20,23,05,18.80
2018,12,20,23,06,10.40
2018,12,20,23,07,17.40
2018,12,20,23,08,10.30
2018,12,20,23,09,14.80
2018,12,20,23,10,14.30
2018,12,20,23,11,13.70
2018,12,20,23,12,14.90
2018,12,20,23,13,14.70
2018,12,20,23,14,15.10
2018,12,20,23,15,14.10
2018,12,20,23,16,15.90
2018,12,20,23,17,16.90
2018,12,20,23,18,18.50
2018,12,20,23,19,14.70
2018,12,20,23,20,11.70
2018,12,20,23,21,13.00
2018,12,20,23,22,12.00
2018,12,20,23,23,15.00
2018,12,20,23,24,9.20
2018,12,20,23,25,12.80
2018,12,20,23,26,19.30
2018,12,20,23,27,19.60
2018,12,20,23,28,12.80
2018,12,20,23,29,19.00
2018,12,20,23,30,22.00
2018,12,20,23,31,21.90
2018,12,20,23,32,18.70
2018,12,20,23,33,15.40
2018,12,20,23,34,16.00
2018,12,20,23,35,15.50
2018,12,20,23,36,14.60
2018,12,20,23,37,17.00
2018,12,20,23,38,14.20
2018,12,20,23,39,13.20
2018,12,20,23,40,22.80
2018,12,20,23,41,17.30
2018,12,20,23,42,18.30
2018,12,20,23,43,17.00
2018,12,20,23,44,18.70
2018,12,20,23,45,17.00
2018,12,20,23,46,16.30
2018,12,20,23,47,23.20
2018,12,20,23,48,26.20
2018,12,20,23,49,16.00
2018,12,20,23,50,16.10
2018,12,20,23,51,23.40
2018,12,20,23,52,24.30
2018,12,20,23,53,19.10
2018,12,20,23,54,20.60
2018,12,20,23,55,13.50
2018,12,20,23,56,13.40
2018,12,20,23,57,13.10
2018,12,20,23,58,15.30
2018,12,20,23,59,16.30
